WZZ5009 EPKK-EYVI

Flight info

Callsign WZZ5009
Flight time 0h 52m
Altitude 35000
Route POBOK M985 KOTEK DCT EVODO DCT OFEDE DCT LIZUP DCT DIMTA
Aircraft A321/M-SDE1E2E3FGIJ1J4RWXY/LB1

Departure

Time 2026-05-07 13:32
Airport Kraków John Paul II International Airport (EPKK)

Arrival

Time 2026-05-07 14:24
Airport Vilnius International Airport (EYVI)
Time Latitude Longitude Altitude Speed Heading
2026-05-07 12:22 50.07453 19.79845 800 ft 0 kts 258°
2026-05-07 13:26 50.07451 19.79829 800 ft 5 kts 258°
2026-05-07 13:27 50.07461 19.79771 800 ft 6 kts 324°
2026-05-07 13:27 50.07517 19.79744 800 ft 10 kts 344°
2026-05-07 13:27 50.07587 19.79720 800 ft 11 kts 349°
2026-05-07 13:27 50.07646 19.79702 800 ft 5 kts 348°
2026-05-07 13:28 50.07681 19.79714 800 ft 6 kts 38°
2026-05-07 13:28 50.07701 19.79791 800 ft 12 kts 76°
2026-05-07 13:28 50.07724 19.79967 800 ft 21 kts 78°
2026-05-07 13:28 50.07753 19.80167 800 ft 11 kts 78°
2026-05-07 13:29 50.07769 19.80278 800 ft 11 kts 76°
2026-05-07 13:29 50.07815 19.80345 800 ft 10 kts 358°
2026-05-07 13:29 50.07887 19.80324 800 ft 11 kts 347°
2026-05-07 13:29 50.07965 19.80297 800 ft 12 kts 348°
2026-05-07 13:30 50.08020 19.80239 800 ft 9 kts 264°
2026-05-07 13:30 50.08014 19.80202 800 ft 0 kts 258°
2026-05-07 13:31 50.08012 19.80190 800 ft 6 kts 258°
2026-05-07 13:31 50.07958 19.79797 800 ft 73 kts 258°
2026-05-07 13:32 50.07803 19.78692 802 ft 134 kts 258°
2026-05-07 13:32 50.07581 19.77116 1174 ft 151 kts 259°
2026-05-07 13:32 50.07348 19.75518 1895 ft 151 kts 259°
2026-05-07 13:32 50.07119 19.73881 2383 ft 162 kts 258°
2026-05-07 13:33 50.06865 19.72047 2563 ft 184 kts 258°
2026-05-07 13:33 50.06580 19.69982 2723 ft 205 kts 258°
2026-05-07 13:33 50.06261 19.67688 2883 ft 228 kts 257°
2026-05-07 13:33 50.06264 19.65221 3539 ft 233 kts 289°
2026-05-07 13:34 50.07246 19.63160 4024 ft 253 kts 323°
2026-05-07 13:34 50.10733 19.61397 5307 ft 274 kts 348°
2026-05-07 13:34 50.12633 19.61455 5987 ft 283 kts
2026-05-07 13:35 50.14532 19.62484 6687 ft 289 kts 25°
2026-05-07 13:35 50.16197 19.64201 7389 ft 294 kts 39°
2026-05-07 13:35 50.17779 19.66341 8083 ft 299 kts 39°
2026-05-07 13:35 50.19340 19.68437 8797 ft 301 kts 40°
2026-05-07 13:36 50.20417 19.69884 9282 ft 304 kts 40°
2026-05-07 13:36 50.22551 19.72762 10142 ft 310 kts 40°
2026-05-07 13:36 50.23678 19.74289 10266 ft 325 kts 41°
2026-05-07 13:36 50.26043 19.77500 10437 ft 354 kts 41°
2026-05-07 13:37 50.27954 19.80104 10589 ft 373 kts 41°
2026-05-07 13:37 50.29288 19.81924 10887 ft 379 kts 41°
2026-05-07 13:37 50.31282 19.84649 11459 ft 383 kts 41°
2026-05-07 13:37 50.33299 19.87409 12059 ft 387 kts 41°
2026-05-07 13:38 50.35335 19.90200 12658 ft 391 kts 41°
2026-05-07 13:38 50.37394 19.93022 13258 ft 395 kts 41°
2026-05-07 13:38 50.39475 19.95877 13846 ft 399 kts 41°
2026-05-07 13:38 50.41573 19.98758 14382 ft 403 kts 41°
2026-05-07 13:39 50.43691 20.01676 14909 ft 407 kts 41°
2026-05-07 13:39 50.45798 20.04583 15453 ft 411 kts 41°
2026-05-07 13:39 50.47955 20.07560 15997 ft 415 kts 41°
2026-05-07 13:39 50.50127 20.10559 16544 ft 418 kts 41°
2026-05-07 13:40 50.52323 20.13596 17087 ft 422 kts 41°
2026-05-07 13:40 50.54535 20.16663 17636 ft 426 kts 41°
2026-05-07 13:40 50.56812 20.19656 18159 ft 429 kts 36°
2026-05-07 13:40 50.59374 20.22096 18614 ft 433 kts 25°
2026-05-07 13:41 50.62181 20.23838 19072 ft 435 kts 16°
2026-05-07 13:41 50.65031 20.25491 19511 ft 439 kts 24°
2026-05-07 13:41 50.67707 20.27857 19956 ft 443 kts 31°
2026-05-07 13:41 50.70345 20.30399 20397 ft 446 kts 31°
2026-05-07 13:42 50.73008 20.32953 20822 ft 450 kts 31°
2026-05-07 13:42 50.75695 20.35510 21251 ft 453 kts 31°
2026-05-07 13:42 50.78403 20.38078 21674 ft 456 kts 31°
2026-05-07 13:42 50.81132 20.40661 22083 ft 459 kts 31°
2026-05-07 13:43 50.83881 20.43263 22478 ft 462 kts 31°
2026-05-07 13:43 50.86649 20.45890 22870 ft 465 kts 31°
2026-05-07 13:43 50.89432 20.48543 23257 ft 468 kts 31°
2026-05-07 13:43 50.92230 20.51219 23616 ft 471 kts 31°
2026-05-07 13:44 50.95044 20.53916 23939 ft 474 kts 31°
2026-05-07 13:44 50.97877 20.56637 24271 ft 477 kts 31°
2026-05-07 13:44 51.00721 20.59372 24592 ft 480 kts 31°
2026-05-07 13:44 51.03584 20.62122 24917 ft 482 kts 31°
2026-05-07 13:45 51.06464 20.64890 25245 ft 485 kts 31°
2026-05-07 13:45 51.09355 20.67677 25556 ft 487 kts 32°
2026-05-07 13:45 51.12261 20.70483 25864 ft 490 kts 32°
2026-05-07 13:45 51.15179 20.73307 26171 ft 492 kts 32°
2026-05-07 13:46 51.18117 20.76154 26456 ft 495 kts 32°
2026-05-07 13:46 51.21068 20.79020 26744 ft 498 kts 32°
2026-05-07 13:46 51.24029 20.81898 27024 ft 500 kts 32°
2026-05-07 13:46 51.27009 20.84795 27312 ft 503 kts 32°
2026-05-07 13:47 51.30005 20.87709 27610 ft 505 kts 32°
2026-05-07 13:47 51.33011 20.90641 27911 ft 508 kts 32°
2026-05-07 13:47 51.36033 20.93592 28205 ft 510 kts 32°
2026-05-07 13:47 51.39063 20.96558 28514 ft 512 kts 32°
2026-05-07 13:48 51.42102 20.99540 28913 ft 512 kts 32°
2026-05-07 13:48 51.45134 21.02519 29304 ft 512 kts 32°
2026-05-07 13:48 51.48168 21.05507 29697 ft 511 kts 32°
2026-05-07 13:48 51.51200 21.08499 30076 ft 511 kts 33°
2026-05-07 13:49 51.54226 21.11486 30412 ft 511 kts 32°
2026-05-07 13:49 51.57252 21.14475 30777 ft 510 kts 32°
2026-05-07 13:49 51.60272 21.17458 31152 ft 508 kts 32°
2026-05-07 13:49 51.63279 21.20435 31522 ft 507 kts 32°
2026-05-07 13:50 51.66273 21.23413 31886 ft 505 kts 32°
2026-05-07 13:50 51.69263 21.26389 32255 ft 504 kts 32°
2026-05-07 13:50 51.72241 21.29357 32619 ft 503 kts 32°
2026-05-07 13:50 51.75211 21.32319 32982 ft 501 kts 32°
2026-05-07 13:51 51.78170 21.35275 33325 ft 500 kts 32°
2026-05-07 13:51 51.81122 21.38227 33661 ft 499 kts 32°
2026-05-07 13:51 51.84070 21.41181 33979 ft 498 kts 32°
2026-05-07 13:51 51.87012 21.44135 34247 ft 498 kts 32°
2026-05-07 13:52 51.89951 21.47096 34514 ft 497 kts 32°
2026-05-07 13:52 51.92885 21.50056 34782 ft 497 kts 32°
2026-05-07 13:52 51.95819 21.53020 34909 ft 497 kts 32°
2026-05-07 13:53 52.01688 21.58954 34930 ft 497 kts 32°
2026-05-07 13:53 52.07563 21.64911 34930 ft 498 kts 32°
2026-05-07 13:54 52.13446 21.70890 34927 ft 498 kts 32°
2026-05-07 13:54 52.19320 21.76892 34928 ft 499 kts 32°
2026-05-07 13:55 52.25198 21.82916 34938 ft 499 kts 32°
2026-05-07 13:55 52.31081 21.88961 34927 ft 500 kts 32°
2026-05-07 13:56 52.36968 21.95022 34928 ft 500 kts 32°
2026-05-07 13:56 52.42857 22.01099 34934 ft 501 kts 32°
2026-05-07 13:57 52.48748 22.07208 34933 ft 501 kts 32°
2026-05-07 13:57 52.54639 22.13341 34932 ft 502 kts 32°
2026-05-07 13:58 52.60537 22.19493 34927 ft 502 kts 32°
2026-05-07 13:58 52.66431 22.25663 34927 ft 502 kts 32°
2026-05-07 13:59 52.72318 22.31856 34929 ft 502 kts 32°
2026-05-07 13:59 52.78209 22.38075 34928 ft 502 kts 32°
2026-05-07 14:00 52.84095 22.44297 34927 ft 502 kts 32°
2026-05-07 14:00 52.89983 22.50536 34933 ft 503 kts 32°
2026-05-07 14:01 52.95869 22.56805 34928 ft 503 kts 32°
2026-05-07 14:01 53.01755 22.63082 34927 ft 503 kts 32°
2026-05-07 14:02 53.07642 22.69374 34930 ft 503 kts 32°
2026-05-07 14:02 53.13525 22.75700 34925 ft 503 kts 31°
2026-05-07 14:03 53.19399 22.82051 34922 ft 503 kts 32°
2026-05-07 14:03 53.25273 22.88420 34924 ft 504 kts 32°
2026-05-07 14:04 53.31422 22.93905 34928 ft 499 kts 17°
2026-05-07 14:04 53.38011 22.97433 34924 ft 497 kts 14°
2026-05-07 14:05 53.44607 23.00941 34921 ft 497 kts 14°
2026-05-07 14:05 53.51160 23.04445 34747 ft 498 kts 14°
2026-05-07 14:05 53.54453 23.06205 34494 ft 497 kts 14°
2026-05-07 14:06 53.57776 23.07980 33550 ft 505 kts 14°
2026-05-07 14:06 53.61187 23.09803 32617 ft 509 kts 14°
2026-05-07 14:06 53.64534 23.11596 31666 ft 514 kts 14°
2026-05-07 14:06 53.67958 23.13436 30758 ft 518 kts 14°
2026-05-07 14:07 53.71356 23.15271 30502 ft 506 kts 14°
2026-05-07 14:07 53.74696 23.17087 30351 ft 485 kts 14°
2026-05-07 14:07 53.77797 23.18776 29839 ft 466 kts 14°
2026-05-07 14:07 53.80890 23.20457 28904 ft 456 kts 14°
2026-05-07 14:08 53.83833 23.22054 28144 ft 444 kts 14°
2026-05-07 14:08 53.86740 23.23629 27363 ft 434 kts 14°
2026-05-07 14:08 53.89592 23.25176 26596 ft 426 kts 14°
2026-05-07 14:08 53.92390 23.26695 25841 ft 418 kts 14°
2026-05-07 14:09 53.95137 23.28188 25097 ft 411 kts 14°
2026-05-07 14:09 53.97850 23.29798 24007 ft 424 kts 22°
2026-05-07 14:09 54.00441 23.32322 23331 ft 435 kts 35°
2026-05-07 14:09 54.02744 23.35674 22694 ft 437 kts 46°
2026-05-07 14:10 54.04632 23.39719 22119 ft 436 kts 58°
2026-05-07 14:10 54.06018 23.44335 21518 ft 442 kts 71°
2026-05-07 14:10 54.06863 23.49361 20938 ft 442 kts 79°
2026-05-07 14:10 54.07794 23.54422 20393 ft 456 kts 69°
2026-05-07 14:11 54.09091 23.59384 19891 ft 460 kts 67°
2026-05-07 14:11 54.10403 23.64341 19374 ft 458 kts 67°
2026-05-07 14:11 54.11702 23.69268 18853 ft 454 kts 67°
2026-05-07 14:11 54.12986 23.74160 18353 ft 450 kts 67°
2026-05-07 14:12 54.14251 23.79012 17804 ft 446 kts 67°
2026-05-07 14:12 54.15504 23.83837 17294 ft 442 kts 67°
2026-05-07 14:12 54.16742 23.88614 16784 ft 439 kts 67°
2026-05-07 14:12 54.17968 23.93361 16250 ft 435 kts 68°
2026-05-07 14:13 54.19182 23.98078 15731 ft 432 kts 68°
2026-05-07 14:13 54.20384 24.02760 15175 ft 429 kts 67°
2026-05-07 14:13 54.21573 24.07401 14653 ft 425 kts 67°
2026-05-07 14:13 54.22755 24.12008 14099 ft 422 kts 67°
2026-05-07 14:14 54.23930 24.16582 13524 ft 419 kts 67°
2026-05-07 14:14 54.25093 24.21124 12946 ft 414 kts 67°
2026-05-07 14:14 54.26238 24.25613 12398 ft 410 kts 67°
2026-05-07 14:14 54.27366 24.30065 11855 ft 406 kts 67°
2026-05-07 14:15 54.28477 24.34492 11290 ft 403 kts 68°
2026-05-07 14:15 54.29513 24.38927 10744 ft 400 kts 70°
2026-05-07 14:15 54.30474 24.43364 10590 ft 398 kts 71°
2026-05-07 14:15 54.31402 24.47835 10464 ft 399 kts 71°
2026-05-07 14:16 54.32319 24.52309 10305 ft 398 kts 71°
2026-05-07 14:16 54.33243 24.56782 10123 ft 398 kts 71°
2026-05-07 14:16 54.34180 24.61239 9937 ft 397 kts 71°
2026-05-07 14:16 54.35126 24.65685 9424 ft 399 kts 70°
2026-05-07 14:17 54.36075 24.70126 8882 ft 392 kts 70°
2026-05-07 14:17 54.37007 24.74502 8200 ft 390 kts 70°
2026-05-07 14:17 54.37922 24.78810 7986 ft 376 kts 71°
2026-05-07 14:17 54.38794 24.82929 7846 ft 357 kts 71°
2026-05-07 14:18 54.39604 24.86760 7687 ft 326 kts 71°
2026-05-07 14:18 54.40345 24.90266 7530 ft 300 kts 71°
2026-05-07 14:18 54.41034 24.93542 7171 ft 286 kts 71°
2026-05-07 14:18 54.41699 24.96721 6651 ft 281 kts 71°
2026-05-07 14:19 54.42345 24.99820 6302 ft 268 kts 71°
2026-05-07 14:19 54.42757 25.01804 5899 ft 266 kts 71°
2026-05-07 14:19 54.43373 25.04778 5282 ft 263 kts 71°
2026-05-07 14:19 54.43987 25.07745 4595 ft 264 kts 70°
2026-05-07 14:20 54.44594 25.10661 4240 ft 254 kts 70°
2026-05-07 14:20 54.45209 25.13505 4112 ft 253 kts 64°
2026-05-07 14:20 54.46195 25.15970 4000 ft 251 kts 43°
2026-05-07 14:20 54.47589 25.17653 3728 ft 241 kts 21°
2026-05-07 14:21 54.49122 25.18723 3425 ft 236 kts 18°
2026-05-07 14:21 54.50625 25.19751 3112 ft 227 kts 18°
2026-05-07 14:21 54.52044 25.20728 2838 ft 212 kts 19°
2026-05-07 14:21 54.53363 25.21637 2560 ft 197 kts 19°
2026-05-07 14:22 54.54929 25.22718 2240 ft 166 kts 17°
2026-05-07 14:22 54.55618 25.23193 2083 ft 157 kts 18°
2026-05-07 14:22 54.56599 25.23869 1873 ft 147 kts 17°
2026-05-07 14:22 54.57535 25.24514 1677 ft 144 kts 18°
2026-05-07 14:23 54.58454 25.25147 1486 ft 141 kts 18°
2026-05-07 14:23 54.59374 25.25782 1266 ft 143 kts 19°
2026-05-07 14:23 54.60291 25.26430 1067 ft 142 kts 19°
2026-05-07 14:23 54.61214 25.27054 875 ft 143 kts 17°
2026-05-07 14:24 54.62142 25.27698 684 ft 143 kts 19°
2026-05-07 14:24 54.63037 25.28310 603 ft 123 kts 21°
2026-05-07 14:24 54.63554 25.28673 619 ft 37 kts 22°
2026-05-07 14:24 54.63759 25.28757 635 ft 28 kts 354°
2026-05-07 14:25 54.63934 25.28729 640 ft 23 kts 354°
2026-05-07 14:25 54.64085 25.28703 645 ft 21 kts 354°
2026-05-07 14:25 54.64222 25.28678 648 ft 19 kts 354°
2026-05-07 14:25 54.64356 25.28657 650 ft 19 kts 355°
2026-05-07 14:26 54.64474 25.28626 651 ft 3 kts 351°
2026-05-07 14:26 54.64498 25.28615 651 ft 6 kts 338°
2026-05-07 14:26 54.64501 25.28496 646 ft 12 kts 255°
2026-05-07 14:26 54.64481 25.28379 643 ft 10 kts 255°
2026-05-07 14:27 54.64476 25.28340 642 ft 4 kts 257°
2026-05-07 14:27 54.64476 25.28290 644 ft 4 kts 295°
2026-05-07 14:27 54.64491 25.28229 637 ft 6 kts 270°
2026-05-07 14:27 54.64491 25.28201 637 ft 1 kts 270°
2026-05-07 14:28 54.64491 25.28183 637 ft 1 kts 270°